Regional Weather Roundup
Issued by NWS

Home | Current Version | Previous Version | Graphics & Text | Print | Product List | Glossary On
Versions: 1 2 3 4 5 6 7 8 9 10 11 12 13 14 15 16 17 18 19 20 21 22 23 24 25 26 27 28
000
ASUS45 KCYS 231110
RWRWY

WYOMING REGIONAL WEATHER ROUNDUP
NATIONAL WEATHER SERVICE CHEYENNE WY
500 AM MDT SUN APR 23 2017

NOTE:  "FAIR" INDICATES FEW OR NO CLOUDS BELOW 12,000 FEET
WITH NO SIGNIFICANT WEATHER AND/OR OBSTRUCTIONS TO VISIBILITY.

WYZ001-231200-
YELLOWSTONE NATIONAL PARK

CITY           SKY/WX    TMP DP  RH WIND       PRES   REMARKS
LK YELLOWSTONE   N/A     25  23  92 CALM      29.99F
W YELLOWSTONE  NOT AVBL

$$
WYZ002>013-054>058-071-098>099-231200-
NORTHERN WYOMING

CITY           SKY/WX    TMP DP  RH WIND       PRES   REMARKS
JACKSON        CLOUDY    30  28  93 N5        29.98R WCI  25
CODY           FAIR      43  34  70 CALM      29.89F
GREYBULL       FAIR      38  33  82 SE3       29.86F
WORLAND        FAIR      40  39  97 S8        29.87S WCI  34
SHERIDAN       FAIR      34  31  88 CALM      29.84F
BUFFALO        FAIR      43  31  62 W10       29.86F
GILLETTE       FAIR      42  34  73 W7        29.86S
HULETT         FAIR      50  32  50 SW9       29.87F
NEWCASTLE      FAIR      43  30  61 SE7       29.93F

$$
WYZ014>020-022>026-101>103-231200-
CENTRAL WYOMING

CITY           SKY/WX    TMP DP  RH WIND       PRES   REMARKS
BIG PINEY      FAIR      26  23  88 NE5       30.00F WCI  20
PINEDALE       FAIR      28  23  80 CALM      30.01F
DUBOIS         PTSUNNY   30  21  69 SW5       29.95S WCI  25
LANDER         FAIR      46  26  45 NW6       29.90F
RIVERTON       FAIR      42  32  67 W3        29.91F
CASPER         FAIR      42  29  59 SW14      29.91F
DOUGLAS        FAIR      39  33  79 SE7       29.93F WCI  34

$$
WYZ021-027>030-104>119-231200-
SOUTHERN WYOMING

CITY           SKY/WX    TMP DP  RH WIND       PRES   REMARKS
EVANSTON       FAIR      40  21  46 S6        29.98S
KEMMERER         N/A     30  27  86 N7        30.00S WCI  23
ROCK SPRINGS   FAIR      39  20  46 S9        29.99F WCI  33
DIXON            N/A     31  26  81 CALM      30.08F
RAWLINS        FAIR      41  18  39 CALM      30.02F
SARATOGA       FAIR      37  21  52 SE12      30.04F WCI  30
LARAMIE        FAIR      32  26  78 SE5       30.03F WCI  27
CHEYENNE       FAIR      33  28  81 W6        30.02F WCI  28
TORRINGTON     FAIR      42  33  70 SE9       29.96F
PINE BLUFFS    FAIR      32  32 100 SW5       30.03F WCI  27

$$




USA.gov is the U.S. government's official web portal to all federal, state and local government web resources and services.